Volver al catálogo

OPS 3165

ActivoMilitarGEO
NORAD 8482·PAYLOAD·🇺🇸 United States

Lanzado Dec 14, 1975 desde Cape Canaveral Space Force Station

Loading…

TLE

ActualizadoSource: Space-Track

Época: Sep 14, 2026, 15:06 UTC

1 08482U 75118A   26257.62931633 -.00000168  00000-0  00000-0 0  9995
2 08482   2.0732 255.2268 0033318  28.8273  86.3499  1.00456933 27353

Sigue OPS 3165 en tiempo real con AllMySat

Download on the App Store